This demonstration page uses our WeatherBlox Daily Observations layout. Learn more.

Left ArrowRight Arrow

34.02893, -84.19858

Hourly Observations for December 24, 2018

Temp ( °F °C ) Dew Point ( °F °C ) Humidity (%) Winds ( mph kmh ) Pressure ( in mb ) Visibility ( mi km ) Precip ( " mm )
12:18 am 00:18 Mostly Cloudy 45 7.2 40 4.4 83 83 NW 8 13 30.27 1025 10 16 0.00 0.00
12:51 am 00:51 Partly Cloudy 43 6 37 3 81 81 NW 10 17 30.27 1025 10 16 0.00 0.00
12:53 am 00:53 Mostly Clear 43 6.1 38 3.3 82 82 NW 12 19 30.25 1024 10 16 0.00 0.00
1:26 am 01:26 Mostly Cloudy 42 5.6 37 2.8 82 82 NW 12 19 30.27 1025 10 16 0.00 0.00
1:49 am 01:49 Partly Cloudy 41 5 36 2 81 81 WNW 9 15 30.27 1025 10 16 0.00 0.00
1:53 am 01:53 Mostly Clear 41 5 36 2.2 82 82 WNW 8 13 30.26 1025 10 16 0.00 0.00
2:53 am 02:53 Mostly Clear 39 3.9 35 1.7 86 86 NW 9 15 30.26 1025 10 16 0.00 0.00
3:53 am 03:53 Clear 38 3.3 34 1.1 86 86 WNW 12 19 30.28 1025 10 16 0.00 0.00
4:53 am 04:53 Clear 37 2.8 33 0.6 86 86 NW 10 17 30.28 1025 9 14 0.00 0.00
5:53 am 05:53 Clear 35 1.7 31 -0.6 85 85 NW 13 20 30.29 1026 9 14 0.00 0.00
6:53 am 06:53 Clear 34 1.1 30 -1.1 85 85 WNW 6 9 30.31 1026 9 14 0.00 0.00
7:53 am 07:53 Sunny 32 0 30 -1.1 92 92 W 6 9 30.33 1027 7 11 0.00 0.00
8:53 am 08:53 Sunny 35 1.7 31 -0.6 85 85 NW 7 11 30.36 1028 7 11 0.00 0.00
9:53 am 09:53 Sunny 39 3.9 32 0 76 76 NW 9 15 30.35 1028 8 13 0.00 0.00
10:53 am 10:53 Sunny 42 5.6 31 -0.6 65 65 WNW 8 13 30.35 1028 8 13 0.00 0.00
11:53 am 11:53 Sunny 45 7.2 31 -0.6 58 58 NW 7 11 30.33 1027 9 14 0.00 0.00
12:53 pm 12:53 Sunny 47 8.3 30 -1.1 52 52 WNW 7 11 30.29 1026 9 14 0.00 0.00
1:53 pm 13:53 Sunny 49 9.4 30 -1.1 48 48 W 3 6 30.27 1025 9 14 0.00 0.00
2:53 pm 14:53 Sunny 50 10 29 -1.7 44 44 WNW 6 9 30.26 1025 10 16 0.00 0.00
3:53 pm 15:53 Sunny 51 10.6 29 -1.7 43 43 NW 6 9 30.27 1025 10 16 0.00 0.00
4:53 pm 16:53 Sunny 50 10 29 -1.7 44 44 NW 5 7 30.27 1025 10 16 0.00 0.00
5:53 pm 17:53 Clear 45 7.2 31 -0.6 58 58 WNW 5 7 30.27 1025 10 16 0.00 0.00
6:53 pm 18:53 Clear 41 5 31 -0.6 67 67 WSW 3 6 30.29 1026 9 14 0.00 0.00
7:53 pm 19:53 Clear 38 3.3 32 0 79 79 WNW 6 9 30.30 1026 8 13 0.00 0.00
8:53 pm 20:53 Clear 39 3.9 30 -1.1 70 70 NW 6 9 30.31 1026 9 14 0.00 0.00
9:53 pm 21:53 Hazy 35 1.7 29 -1.7 78 78 Calm 30.28 1025 6 10 0.00 0.00
10:53 pm 22:53 Clear with Mist and Fog 32 0 29 -1.7 88 88 Calm 30.29 1026 6 10 0.00 0.00
11:53 pm 23:53 Clear with Mist and Fog 31 -0.6 28 -2.2 89 89 Calm 30.29 1026 4 6 0.00 0.00

Powered by AerisWeather